www.pogodaiklimat.ru

Погода и климат >> Архив погоды >> Украина >> Олевск


ПОГОДА в Олевске

  • Прогноз погоды в Олевске
  • Монитор погоды в Олевске

АРХИВ ПОГОДЫ в Олевске

Время (UTC), дата Ветер
(напр.,м/с)
 
Видим.   Явления Облачность Т
(С)
Тd
(С)
f
(%)
Тe
(С)
Тes
(С)
Комфортность P
(гПа)
Po
(гПа)
Тmin
(С)
Tmax
(С)
R
(мм)
R24
(мм)
S
(см)
21 16.08 СЗ 1 14 км 6/0
[Ac trans]
+11.3 +9.0 86 +11 +11 1017.0 995.0
00 17.08 штиль 0 12 км 3/0
[Ac trans]
+9.6 +7.7 88 +9 +9 1016.0 993.9
03 17.08 СЗ 1 10 км 3/0
[Ac trans]
+7.6 +5.7 88 +7 +7 1016.0 993.8
06 17.08 З 2 20 км ясно +15.4 +10.8 74 +15 +20 1016.0 994.4 +7.2
09 17.08 С 3 20 км 6/6 600 м
[Cu med, cong]
+20.0 +10.9 56 +22 +26 комфорт 1015.0 993.7
12 17.08 СЗ 3 20 км 6/6 600 м
[Cb calv]
+21.1 +10.0 49 +23 +26 комфорт 1014.0 992.8
15 17.08 СЗ 3 20 км 5/5 600 м
[Cu Sc]
+22.4 +10.8 48 +24 +25 комфорт 1014.0 992.9
18 17.08 штиль 0 20 км ясно +16.5 +13.2 81 +16 +16 1015.0 993.5 +22.5
21 17.08 З 1 12 км 4/0
[Ac cast]
+11.3 +9.6 89 +11 +11 1015.0 993.1
00 18.08 штиль 0 10 км ясно +9.4 +7.7 89 +9 +9 1015.0 992.9
03 18.08 З 1 4000 м дымка ясно +7.6 +6.7 94 +7 +7 1015.0 992.8
06 18.08 З 1 10 км 3/0
[Cc]
+15.4 +12.0 80 +16 +20 1015.0 993.4 +7.4
09 18.08 СЗ 2 20 км 3/1 600 м
[Cu hum Ci fib]
+23.1 +11.5 48 +25 +34 комфорт 1014.0 993.0
12 18.08 ЮЗ 1 20 км 5/5 1000 м
[Cu hum]
+25.6 +12.8 45 +27 +33 жарко 1014.0 993.2
15 18.08 З 1 20 км 3/1 1000 м
[Cu hum Ci fib]
+25.5 +13.0 46 +27 +30 жарко 1014.0 993.2
18 18.08 штиль 0 10 км 6/0
[Ci fib]
+19.0 +15.1 78 +20 +20 1015.0 993.7 +25.8
21 18.08 штиль 0 10 км ясно +15.0 +12.3 84 +15 +15 1016.0 994.4
00 19.08 СВ 1 10 км ясно +13.6 +11.6 88 +14 +14 1016.0 994.3
03 19.08 штиль 0 10 км ясно +12.3 +10.5 89 +12 +12 1017.0 995.1
06 19.08 ЮЗ 1 20 км ясно +17.6 +13.5 77 +19 +24 1017.0 995.6 +11.6
09 19.08 ЮЗ 3 20 км 3/0
[Ci fib]
+26.1 +16.9 57 +30 +37 душно 1017.0 996.2
12 19.08 ЮЗ 3 20 км 4/3 1000 м
[Cu hum Ci fib]
+28.2 +16.8 50 +32 +38 душно 1017.0 996.3
15 19.08 ЮЗ 1 20 км 3/0
[Ci fib]
+28.3 +16.9 50 +32 +34 душно 1017.0 996.3
18 19.08 штиль 0 20 км 1/0
[Ci fib]
+23.2 +18.9 77 +29 +29 душно 1017.0 996.0 +28.7
21 19.08 штиль 0 16 км ясно +18.6 +15.8 84 +19 +19 1019.0 997.6
00 20.08 штиль 0 14 км ясно +17.1 +14.7 86 +17 +17 1019.0 997.5
03 20.08 штиль 0 10 км ясно +15.8 +13.8 88 +16 +16 1020.0 998.4
06 20.08 ЮЗ 1 20 км 3/0
[Ac trans Ci fib]
+21.1 +15.6 71 +24 +28 комфорт 1021.0 999.7 +14.9
09 20.08 Ю 3 20 км 4/0
[Ci fib]
+28.3 +17.8 53 +33 +40 очень
душно
1020.0 999.3
12 20.08 Ю 2 20 км 4/1 600 м
[Cu hum Ci fib]
+30.6 +19.0 50 +36 +45 очень
душно
1019.9 999.2
15 20.08 Ю 2 20 км 8/3 600 м
[Cu med, cong Ci fib]
+29.6 +18.4 51 +34 +34 очень
душно
1020.0 999.4
18 20.08 штиль 0 20 км 6/3 600 м
[Sc Ci fib]
+24.7 +20.6 78 +31 +31 очень
душно
1021.0 1000.0 +30.7
21 20.08 штиль 0 15 км 6/0
[Ci fib]
+20.4 +18.3 88 +24 +24 комфорт 1022.0 1000.7
00 21.08 СВ 1 12 км 6/0
[Ci fib]
+17.8 +16.0 89 +19 +19 1022.0 1000.5
03 21.08 СВ 1 10 км 8/0
[Ci fib]
+16.3 +14.3 88 +17 +17 1022.0 1000.4
06 21.08 СВ 1 20 км 4/0
[Ci fib]
+21.8 +16.1 70 +26 +29 душно 1022.0 1000.8 +15.6
09 21.08 СВ 1 20 км 6/0
[Ci fib]
+28.9 +16.1 46 +32 +38 душно 1021.0 1000.3
12 21.08 штиль 0 20 км ясно +30.9 +15.3 39 +33 +48 душно 1019.0 998.5
15 21.08 ЮЗ 1 20 км ясно +30.6 +14.2 37 +32 +35 жарко 1019.0 998.4
18 21.08 З 2 20 км 6/3 600 м
[Cb calv Ac trans Cc]
+23.7 +19.4 77 +29 +29 душно 1020.0 999.0 +31.4
21 21.08 СЗ 4 16 км 9/9 870 м
[Sc]
+19.4 +16.8 85 +21 +21 комфорт 1023.0 1001.6
00 22.08 СЗ 4 14 км гроза без осадков 9/9 630 м
[Cb cap]
+16.4 +14.0 86 +16 +16 1025.0 1003.3
03 22.08 З 2 10 км {гроза, ливн. осадки} 10/10 600 м
[Cb calv]
+14.5 +12.9 90 +14 +14 1026.0 1004.1
06 22.08 С 3 10 км {гроза, ливн. осадки} 9/8 630 м
[Cb calv Ac trans]
+15.4 +13.4 88 +15 +15 1027.0 1005.2 +14.0 2
09 22.08 С 3 10 км 3 балла +19.6 +12.4 63 +21 +28 комфорт 1027.0 1005.5
12 22.08 СЗ 2 20 км 4/0
[Ac trans Ci fib]
+22.8 +11.8 50 +25 +33 комфорт 1026.0 1004.7
15 22.08 С 4 10 км 10 баллов +23.0 +11.1 47 +25 +25 комфорт 1026.0 1004.7
18 22.08 С 1 10 км 10 баллов +18.9 +11.2 61 +21 +21 комфорт 1027.0 1005.4 +23.1
21 22.08 С 2 10 км 10 баллов +15.7 +11.3 75 +16 +16 1028.0 1006.2
00 23.08 С 1 10 км 10 баллов +13.5 +11.4 87 +14 +14 1029.0 1007.0
03 23.08 С 1 10 км 10 баллов +12.7 +10.8 88 +13 +13 1029.0 1006.9
06 23.08 С 1 4000 м 10 баллов +13.3 +11.4 88 +13 +13 1030.0 1007.9 +12.5 1
09 23.08 СВ 3 10 км 3 балла +18.4 +13.0 71 +19 +26 1029.0 1007.4
12 23.08 С 4 10 км 3 балла +22.4 +11.5 50 +25 +30 комфорт 1028.0 1006.7
15 23.08 С 4 10 км ясно +23.0 +10.7 46 +25 +27 комфорт 1027.0 1005.7

 

Местоположение метеостанции Олевск (Житомирская область, Украина): широта 51.22 долгота 27.68 высота над уровнем моря 182 м.

В архиве по умолчанию представлена погода в Олевске за последнюю неделю. Архивные данные за месяц целиком и за предыдущие месяцы, начиная с января 2011 года, Вы можете получить, выбрав интересующий диапазон дат из раскрывающегося списка и нажав кнопку "Ввод!".


*Определитесь, кто Вы:
робот инопланетянин человек

Внимание! Время в таблицах - всемирное. Для получения местного времени необходимо прибавить поправку, которая равна 2 ч.

Смотрите также архив погоды в соседних городах и на ближайших метеорологических станциях:

Погода в Новограде-Волынском (Житомирская область, Украина) (69 км)
Погода в Сарнах (Ровенская область, Украина) (74 км)
Погода в Коростени (Житомирская область, Украина) (74 км)
Погода в Овруче (Житомирская область, Украина) (77 км)
Погода в Житковичах (Гомельская область, Беларусь) (112 км)
Погода в Шепетовке (Хмельницкая область, Украина) (125 км)
Погода в Ровно (Ровенская область, Украина) (130 км)
Погода в Житомире (Житомирская область, Украина) (133 км)
Погода в Полесской (Брестская область, Беларусь) (138 км)
Погода в Мозыре (Гомельская область, Беларусь) (139 км)

Пояснения к столбцам:

Ветер - указаны скорость ветра в м/с - средняя за 10 мин, порывы в срок и между сроками (в фигурных скобках) и направление, откуда дует ветер: С - северный, СВ - северо-восточный, В - восточный, ЮВ - юго-восточный, Ю - южный, ЮЗ - юго-западный, З - западный, СЗ - северо-западный.
Видимость - горизонтальная дальность видимости в метрах или километрах. При видимости от 1 до 10 км при отсутствии осадков обычно наблюдается дымка, при ухудшении видимости до 1 км и менее - туман. В сухую погоду видимость может ухудшаться дымом, пылью или мглою.
Явления - указаны атмосферные явления, наблюдавшиеся в срок или в последний час перед сроком; фигурными скобками обозначены явления, наблюдавшиеся между сроками (за 1-3 часа до срока); квадратными скобками обозначены град или гололедные отложения с указанием их диаметра в мм.
Облачность - указаны через наклонную черту общая и нижняя облачность в баллах и высота нижней границы облаков в метрах; квадратными скобками обозначены формы облаков: Ci - перистые, Cs - перисто-слоистые, Cc - перисто-кучевые, Ac - высококучевые, As - высокослоистые, Sc - слоисто-кучевые, Ns - слоисто-дождевые, Cu - кучевые, Cb - кучево-дождевые. Подробнее классификацию облаков см. в Атласе облаков (PDF).
T - Температура воздуха - температура, измеренная на высоте 2 м над землей.
Td - Температура точки росы - температура, при понижении до которой содержащийся в воздухе водяной пар достигнет насыщения.
f - Относительная влажность воздуха - влажноcть воздуха, измеренная на высоте 2 м над землей.
Te - Эффективная температура - температура, которую ощущает одетый по сезону человек в тени. Характеристика душности погоды. При расчете учитывается влияние влажности воздуха и скорости ветра на теплоощущения человека.
Tes - Эффективная температура на солнце - температура, которую ощущает человек, с поправкой на солнечный нагрев. Характеристика знойности погоды. Зависит от высоты солнца над горизонтом, облачности и скорости ветра. Ночью, в пасмурную погоду, а также при ветре 12 м/с и более поправка равна нулю.
P - Атмосферное давление - приведенное к уровню моря атмосферное давление.
Po - Атмосферное давление - измеренное на уровне метеостанции атмосферное давление.
Tmin - Минимальная температура - минимум температуры воздуха на высоте 2 м над землей.
Tmax - Максимальная температура - максимум температуры воздуха на высоте 2 м над землей.
R - Количество осадков - Количество выпавших осадков за период времени, мм. При наведении курсора мыши на число - период времени, за который выпало указанное количество осадков.
R24 - Количество осадков - Количество выпавших осадков за 24 часа, мм.
S - Снежный покров - Высота снежного покрова, см. При наведении курсора мыши на число - состояние снежного покрова и степень покрытия местности в баллах.